{"data":{"norad_id":41473,"epoch":"2026-05-25T04:17:23.055648Z","epoch_age_seconds":53383,"freshness":"FRESH","line1":"1 41473U 16029A   26145.17873907  .00000645  00000+0  10034-3 0  9992","line2":"2 41473  97.9026 195.5734 0014473 311.5154  48.4813 14.76238523540274","mean_motion":14.76238523,"eccentricity":0.0014473,"inclination_deg":97.9026,"raan_deg":195.5734,"arg_perigee_deg":311.5154,"mean_anomaly_deg":48.4813,"bstar":0.00010034,"rev_number":54027,"period_min":97.54521221094,"perigee_km":631.06337434241,"apogee_km":651.38161233182,"semimajor_km":7019.3594933371,"source":"CELESTRAK","updated_at":"2026-05-25T13:37:55.617053Z"}}